Hourly Data Report for January 16, 2022

KUGAARUK CLIMATE
NUNAVUT
Current Station Operator: ECCC - MSC

68°32'15.060" N
89°47'47.020" W
15.80 m
2303094
71407
NBB

Download Data

Hourly Data (January 2022)
Hourly Data Report for January 16, 2022
TIME
LST
Temp Definition
°C
Dew Point Definition
°C
Rel Hum Definition
%
Precip. Amount Definition
mm

Wind Dir Definition
10's deg

Wind Spd Definition
km/h
Visibility Definition
km
Stn Press Definition
kPa
Hmdx Definition


Wind Chill Definition


Weather Definition


00:00 -27.0 -30.4 73 0.0 3 27   100.80   -41 LegendNANA
01:00 -27.3 -30.8 73 0.0 4 20   100.80   -40 LegendNANA
02:00 -27.9 -31.3 72 0.0 2 29   100.77   -43 LegendNANA
03:00 -28.6 -32.0 73 0.0 2 27   100.80   -43 LegendNANA
04:00 -28.5 -31.8 73 0.0 5 23   100.83   -42 LegendNANA
05:00 -29.3 -32.6 73 0.0 3 24   100.86   -43 LegendNANA
06:00 -29.5 -32.9 72 0.0 1 26   100.89   -44 LegendNANA
07:00 -30.6 -34.0 72 0.0 1 24   100.87   -45 LegendNANA
08:00 -30.6 -34.0 72 0.0 2 26   100.84   -45 LegendNANA
09:00 -31.4 -34.8 72 0.0 1 24   100.87   -46 LegendNANA
10:00 -32.0 -35.5 71 0.0 9 10   100.89   -42 LegendNANA
11:00 -32.3 -35.8 71 0.0 9 8   100.87   -41 LegendNANA
12:00 -32.4 -35.9 71 0.0 5 9   100.82   -41 LegendNANA
13:00 -32.6 -36.2 70 0.0 36 12   100.81   -43 LegendNANA
14:00 -33.5 -37.1 70 0.0 23 3   100.77   -37 LegendNANA
15:00 -32.0 -35.5 71 0.0 13 1   100.77   -33 LegendNANA
16:00 -33.5 -36.9 71 0.0 24 4   100.76   -38 LegendNANA
17:00 -32.2 -35.6 71 0.0 24 17   100.76   -45 LegendNANA
18:00 -31.2 -34.5 72 0.0 25 16   100.75   -43 LegendNANA
19:00 -31.8 -35.2 71 0.0 25 18   100.70   -45 LegendNANA
20:00 -31.9 -35.3 72 0.0 25 20   100.71   -45 LegendNANA
21:00 -31.1 -34.6 71 0.0 25 22   100.61   -45 LegendNANA
22:00 -31.1 -34.6 71 0.0 25 25   100.58   -46 LegendNANA
23:00 -30.5 -34.0 71 0.0 24 24   100.56   -45 LegendNANA

Notes on Data Quality.

Legend

  • E = Estimated
  • M = Missing
  • NA = Not Available*
  • [empty] = Indicates an unobserved value
Date modified: